Погода в Калинине

Россия / Республика Хакасия     53°45′33″N   91°24′01″E
темп.,
°C
ветер,
м/с
пор.,
м/с
влажн.,
%
обл.,
%
осадки,
мм/ч
давл.,
гПа
погр.,
м
16 мая, вс
вс1601:00+14ююз5116697 0.0 1018339
04:00+13ююз4977100 0.3 1017238
07:00+13ююз41075100 0.8 1016320
10:00+13ююв3477100 0.6 1016126
13:00+18юз7115199 0.7 1013508
16:00+20з484999 0.1 1010194
19:00+22зюз81344100 0.4 1008678
22:00+15з71379100 1.7 1009499
17 мая, пн
пн1701:00+14зюз5991100 3.9 1010374
04:00+13з2394100 1.7 1010130
07:00+12с3492100 5.7 1011290
10:00+13с4676100 0.3 1013687
13:00+14с3466100 0.3 1014811
16:00+15ссз3357100 0.0 10141014
19:00+13ссз2462100 0.0 1015144
22:00+12зюз1167100 0.0 101616
18 мая, вт
вт1801:00+11ююз1173100 0.0 101420
04:00+10ю1177100 0.0 101311
07:00+11ю2382100 0.1 1011153
10:00+11ююз2291100 1.4 1009171
13:00+12ююв3592100 3.9 1006250
16:00+14сз248899 1.3 1004118
19:00+14ссв2391100 4.0 100256
22:00+11юз249327 5.9 100363
19 мая, ср
ср1901:00+11зюз119517 6.8 100221
04:00+11сз129698 0.6 100339
07:00+11с2482100 0.6 1004350
10:00+10св3384100 0.4 1002369
13:00+9с3494100 8.6 1001325
16:00+9ссз4890100 4.5 1001573
19:00+8сз4889100 5.3 1002594
22:00+7ссз5891100 1.8 1002966
20 мая, чт
чт2001:00+6ссз71090100 3.2 1003756
04:00+4ссз81585100 0.7 1005758
07:00+4сз5973100 1.0 10081006
10:00+6ссз7957100 0.0 10091284
13:00+8ссз674198 0.1 10102287
16:00+10с6735100 0.0 10102278
19:00+9с454179 0.0 10121727
22:00+5зсз33636 0.1 101569